Regional Weather Roundup
Issued by NWS Wakefield, VA

Home | Current Version | Previous Version | Text Only | Print | Product List | Glossary On
Versions: 1 2 3 4 5 6 7 8 9 10 11 12 13 14 15 16 17 18 19 20 21 22 23 24 25 26 27 28 29 30 31 32 33 34 35 36 37 38 39 40 41 42 43 44 45 46 47 48 49 50
317
ASUS41 KAKQ 291315
RWRAKQ

REGIONAL WEATHER ROUNDUP
NATIONAL WEATHER SERVICE WAKEFIELD VA
900 AM EDT WED MAR 29 2017

Note: "fair" indicates few or no clouds below 12,000 feet with no
significant weather and/or obstructions to visibility. * = Denotes
station may not report precipitation (e.g., rain,snow,etc.),
thunder or fog.

VAZ042-051-052>054-056-291400-
NORTHERN VIRGINIA

CITY           SKY/WX    TMP DP  RH WIND       PRES   REMARKS
WASH NATIONAL  PTSUNNY   56  45  66 N12       30.11R
DULLES         PTSUNNY   54  47  77 N8        30.11R
FORT BELVOIR   CLOUDY    55  45  67 N8        30.11R
QUANTICO       PTSUNNY   57  49  74 NE14      30.10R
FREDERICKSBRG* PTSUNNY   59  50  71 N14       30.08R
STAFFORD*      CLOUDY    57  51  81 N10G16    30.13R
WARRENTON      CLOUDY    58  45  62 N9        30.10R
CULPEPER*      SUNNY     56  48  72 N10       30.11R
MANASSAS*      CLOUDY   N/A N/A N/A N13       30.11R
LEESBURG*      CLOUDY    54  48  82 N10G17    30.13R
WINCHESTER     CLOUDY    50  41  71 N6        30.13R
FRONT ROYAL*   CLOUDY    52  43  71 NW6       30.11S
LURAY*         CLOUDY    54  46  76 N5        30.11S
$$

VAZ048-049-060>072-079>083-291400-
CENTRAL AND SOUTH CENTRAL VIRGINIA

CITY           SKY/WX    TMP DP  RH WIND       PRES   REMARKS
RICHMOND       PTSUNNY   61  53  75 NE9       30.06R
CHESTERFIELD*  CLOUDY    61  39  44 NE8       30.08R
PETERSBURG*    CLOUDY    59  54  83 NE8       30.08R
HANOVER        MOSUNNY   60  52  74 CALM      30.08R
TAPPAHANNOCK*  PTSUNNY   57  50  77 NE3       30.08R
QUINTON*       PTSUNNY   59  56  89 NE3       30.06S
CHARLOTTSVILLE MOSUNNY   61  49  64 N7        30.09R
GORDONSVILLE*  SUNNY     57  48  70 N8G17     30.09R
ORANGE*        SUNNY     55  46  71 N9        30.11R
LOUISA*        SUNNY     61  52  72 N10G17    30.08R
BUMPASS*       FAIR      58  49  71 NW9G17    30.08R
FARMVILLE*     MOSUNNY   60  56  87 NE8       30.07R
CREWE*         FAIR      59  59 100 NE6       30.08R
FORT PICKETT*  FAIR      60  55  85 NE7       30.08R
CHASE CITY*    FAIR      60  58  94 NE3       30.07S
CLARKSVILLE*   FAIR      59  55  88 CALM      30.07R
SOUTH HILL*    MOSUNNY   58  56  91 NE5       30.12R
LAWRENCEVILLE* PTSUNNY   58  55  87 NE6       30.07R
EMPORIA*       PTSUNNY   57  54  88 NE5       30.08R
$$

VAZ088>098-291400-
SOUTHEAST VIRGINIA

CITY           SKY/WX    TMP DP  RH WIND       PRES   REMARKS
NORFOLK        CLOUDY    54  50  86 VRB3      30.06R
VIRGINIA BEACH PTSUNNY   53  48  83 NE8       30.06R
NORFOLK NAVAL  PTSUNNY   56  51  84 N6        30.08R HAZE
WEST POINT*    CLOUDY    57  54  89 N5        30.08S
SALUDA*        CLOUDY    55  53  93 CALM      30.07R
NEWPORT NEWS   CLOUDY    56  51  84 NE8G17    30.07R
LANGLEY AFB    PTSUNNY   56  53  91 NE12      30.06R
FORT EUSTIS    PTSUNNY   59  51  75 NE10      30.04R
WILLIAMSBURG*  MOSUNNY   61  54  77 CALM      30.08R
HR EXEC AP*    CLOUDY    55  50  82 NE7       30.05R
FRANKLIN*      CLOUDY    57  53  85 NE8       30.07R
US460-WAKEFLD  CLOUDY    59  53  80 VRB5      30.07R
$$

VAZ020-022-025-037-045-291400-
WEST CENTRAL AND SOUTHWEST VIRGINIA

CITY           SKY/WX    TMP DP  RH WIND       PRES   REMARKS
STAUNTON*      PTSUNNY   52  46  80 NE10      30.12R
WAYNESBORO*    SUNNY     54  48  82 N5        30.10R
HOT SPRINGS VA CLOUDY    46  45  93 CALM      30.12R
LYNCHBURG      SUNNY     60  51  72 NE5       30.09R
DANVILLE       MOSUNNY   59  53  80 NE6       30.08R
SOUTH BOSTON*  FAIR      59  55  88 NE3       30.08R
MARTINSVILLE   SUNNY     60  50  69 N3        30.11R
ROANOKE        MOSUNNY   60  48  64 E6        30.11R
BLACKSBURG     MOSUNNY   56  50  78 NW5       30.13S
DUBLIN*        MOSUNNY   56  48  72 NW6       30.12R
MARION*        PTSUNNY   56  50  80 CALM      30.14R
HILLSVILLE*    SUNNY     53  49  85 CALM      30.10R
RICHLANDS*     CLOUDY    51  50  95 CALM      30.13R
WISE*          CLOUDY    52  52 100 NE5       30.15R FOG
ABINGDON*      SUNNY     55  54  94 E8        30.10R
$$

MDZ021>025-VAZ099-100-291400-
SOUTHERN MARYLAND AND THE DELMARVA PENINSULA

CITY           SKY/WX    TMP DP  RH WIND       PRES   REMARKS
PATUXENT RIVER MOSUNNY   54  46  74 N17G26    30.08R
BAY BRIDGE APT SUNNY     50  41  71 N12G18    30.11R
LEONARDTOWN    MOSUNNY   54  43  66 NE5       30.09R
DOVER          CLOUDY    49  47  95 N17G23    30.08R
GEORGETOWN     MOSUNNY   52  41  66 N15G24    30.08R
EASTON         MOSUNNY   50  39  66 N12G18    30.13R
CAMBRIDGE      SUNNY     54  43  66 N13       30.08R
SALISBURY      CLOUDY    53  45  74 N12       30.06R
OCEAN CITY     CLOUDY    51  42  71 N14G25    30.06R
WALLOPS ISLAND PTSUNNY   55  47  74 N13       30.06R
ACCOMACK*      PTSUNNY   55  47  72 N7        30.06R
$$

NCZ012>017-030>032-291400-
NORTH CENTRAL AND EASTERN NORTH CAROLINA

CITY           SKY/WX    TMP DP  RH WIND       PRES   REMARKS
ROANOKE RAPIDS FAIR      59  55  88 NE6       30.07R
RALEIGH        MOSUNNY   61  55  81 NE8       30.06R
ELIZABETH CITY CLOUDY    54  50  86 N16       30.07R
AHOSKIE*         N/A     57  55  92 NE6       30.07R
EDENTON*       CLOUDY    59  54  85 NE6       30.07R
CURRITUCK*     PTSUNNY   53  52  97 NE10      30.07R
KILL DEVIL HLS NOT AVBL
MANTEO         CLOUDY    49  48  97 NE14G25   30.06R
CAPE HATTERAS  CLOUDY    54  51  90 N13G22    30.02R FOG
TARBORO*       NOT AVBL
GOLDSBORO      SUNNY     61  61 100 NE10      30.03R
WASHINGTON     MOSUNNY   57  55  91 NE9       30.05R
GREENVILLE     SUNNY     59  59 100 NE10      30.06S
NEW BERN       PTSUNNY   60  59  96 NE10      30.04R
WILMINGTON     MOSUNNY   64  57  78 N7        30.00R
$$

VAZ048-291400-
ELSEWHERE

CITY           SKY/WX    TMP DP  RH WIND       PRES   REMARKS
HARRISBURG PA  SUNNY     48  35  60 N14       30.13R
BALTIMORE      MOSUNNY   51  38  60 N13G21    30.11R
ANNAPOLIS      SUNNY     52  40  63 N16       30.10R
ANDREWS AFB    MOSUNNY   55  42  63 N14       30.09R
PHILADELPHIA   MOSUNNY   46  35  65 N13       30.10R
HENDERSON NC   SUNNY     58  52  81 NE7       30.07R
GREENSBORO     MOSUNNY   62  52  69 NE7       30.07R
ROCKY MOUNT    SUNNY     61  57  87 NE10      30.05R
$$

VAZ100-291400-
MARINE

STATION/POSITION TIME  TEMP    WIND        PRES    WAVE   SWELL
                       AIR SEA DIR/SP/G            HT/PER HT/PER
                 (UTC) (F)     (DEG/KT/KT) (MB)    (FT/S) (FT/S)
CAPE MAY NJ      1248   47 46  340/  9/ 14 1017.8R
LEWES DE         1248   47 47  350/ 18/ 20 1018.0R
WACHAPREAGUE VA  1248   55 54   20/  7/ 10 1017.4R
THOMAS POINT MD  1300   49 47   10/ 15/ 16   N/A
GOOSES REEF MD   1300   49 48   60/ 14/ 17 1019.4    2/ 3
COVE POINT MD    1248   50      30/ 18/ 22 1019.1R
SOLOMONS ISLAND  1248   53 49   10/ 13/ 20   N/A
BISHOPS HEAD MD  1248   54 54  350/ 11/ 15 1018.6R
PINEY POINT MD   1248           40/ 15/ 17   N/A
POTOMAC MD       1300   54 48   20/ 14/ 17 1017.7    0
CAMBRIDGE MD     1248   51 49  360/ 15/ 19 1017.9R
LEWISETTA VA     1248   54 53   30/  9/ 12 1018.2R
RAPPAHANNOCK LGT 1248           30/  7/  8 1018.4R
STINGRAY PT      1250   51      30/  4/  6 1017.9R
YORK RVR RNG VA  1242   54      40/ 10/ 11 1017.4R
YORKTOWN VA      1248   55 51   50/  7/ 10 1017.7R
JAMESTOWN VA     1300   58 56   30/  6/ 12   N/A     0
DOMINION TERM VA 1248   56      50/  3/  7 1017.9R
KIPTOPEKE VA     1248      51   70/  4/  9   N/A
CHES BAY BRIDGE  1248   50 50  100/  6/  7 1017.9R
CAPE HENRY VA    1248   50      60/  6/  7   N/A
WILLOUBY STN VA  1248   53      30/  8/  9 1018.8R
S CRANEY ISL VA  1248   54      40/  7/  9 1017.7R
CAPE HENRY BUOY  1242      50                N/A     3/10   2/11
CAPE CHARLES BUO 1251      49                N/A     3/ 9   2/11
OFFSHORE WE BUOY 1251      50                N/A     5/10   2/11
64NM E OF VA BCH 1250   48 47   10/ 16/ 19 1016.3R   6/ 5   3/ 9
DUCK PIER NC     1248   49 48   20/ 20/ 23 1017.1R
44100 DUCK FRF   1205      52                N/A     4/ 9   2/11
44056 DUCK FRF   1230      51                N/A     4/10   2/11
OREGON INLET NC  1248           10/ 15/ 21   N/A
HATTERAS NC      1248   53 62   20/ 18/ 23 1016.2R
DIAMOND SHLS NC  1250   59 74   10/ 19/ 23 1015.4R   5/10   3/10
CAPE LOOKOUT NC  1200   63      20/ 11/ 14 1014.9R
$$




USA.gov is the U.S. government's official web portal to all federal, state and local government web resources and services.